DW0809 Weather Reports


Display with metric or nautical units.
time (UTC)temp
F
wind
direction
speed
MPH
gust
MPH
rain 1hr
in
rain 24hr
in
rain mn
in
humidity
%
barometer
mb
20260509021515 70 0.0 0.0 0.00 0.00 0.00 38 1007.1
20260509020515 71 0.0 0.0 0.00 0.00 0.00 37 1007.1
20260509015516 71 0.0 0.0 0.00 0.00 0.00 37 1007.0
20260509014515 72 0.0 0.0 0.00 0.00 0.00 37 1007.0
20260509013536 72 0.0 0.0 0.00 0.00 0.00 36 1006.9
20260509012516 72 0.0 0.0 0.00 0.00 0.00 36 1006.8
20260509011515 73 0.0 0.0 0.00 0.00 0.00 35 1006.8
20260509010515 74 0.0 0.0 0.00 0.00 0.00 35 1006.6
20260509005516 74 0.0 0.0 0.00 0.00 0.00 34 1006.5
20260509004516 74 0.0 0.0 0.00 0.00 0.00 34 1006.5
20260509003515 75 0.0 0.0 0.00 0.00 0.00 34 1006.4
20260509002515 75 0.0 0.0 0.00 0.00 0.00 34 1006.4
20260509001515 75 0.0 0.0 0.00 0.00 0.00 34 1006.4
20260509000515 75 0.0 0.0 0.00 0.00 0.00 33 1006.4
20260508235515 75 0.0 0.0 0.00 0.00 0.00 34 1006.5
20260508234517 75 0.0 0.0 0.00 0.00 0.00 33 1006.6
20260508233517 75 0.0 0.0 0.00 0.00 0.00 33 1006.6
20260508232518 75 0.0 0.0 0.00 0.00 0.00 33 1006.7
20260508231517 76 0.0 0.0 0.00 0.00 0.00 33 1006.7
20260508230517 76 0.0 0.0 0.00 0.00 0.00 32 1006.8
20260508225518 76 0.0 0.0 0.00 0.00 0.00 31 1006.9
20260508224515 77 0.0 0.0 0.00 0.00 0.00 30 1007.0
20260508223517 77 0.0 0.0 0.00 0.00 0.00 32 1007.0
20260508222517 76 0.0 0.0 0.00 0.00 0.00 30 1007.1
20260508221517 77 0.0 0.0 0.00 0.00 0.00 30 1007.2
20260508220517 77 0.0 0.0 0.00 0.00 0.00 28 1007.3
20260508215537 76 0.0 0.0 0.00 0.00 0.00 28 1007.3
20260508214518 76 0.0 0.0 0.00 0.00 0.00 27 1007.3
20260508213517 77 0.0 0.0 0.00 0.00 0.00 26 1007.5
20260508212517 78 0.0 0.0 0.00 0.00 0.00 27 1007.6
20260508211517 77 0.0 0.0 0.00 0.00 0.00 29 1007.8
20260508210517 78 0.0 0.0 0.00 0.00 0.00 27 1007.8
20260508205517 77 0.0 0.0 0.00 0.00 0.00 29 1008.1
20260508204517 77 0.0 0.0 0.00 0.00 0.00 27 1008.2
20260508203517 78 0.0 0.0 0.00 0.00 0.00 26 1008.4
20260508202517 79 0.0 0.0 0.00 0.00 0.00 27 1008.6
20260508201517 77 0.0 0.0 0.00 0.00 0.00 30 1008.8
20260508200517 78 0.0 0.0 0.00 0.00 0.00 26 1008.8
20260508195517 79 0.0 0.0 0.00 0.00 0.00 27 1009.0
20260508194517 78 0.0 0.0 0.00 0.00 0.00 26 1009.1
20260508193517 76 0.0 0.0 0.00 0.00 0.00 29 1009.1
20260508192517 76 0.0 0.0 0.00 0.00 0.00 26 1009.3
20260508191537 76 0.0 0.0 0.00 0.00 0.00 25 1009.4
20260508190517 76 0.0 0.0 0.00 0.00 0.00 27 1009.5
20260508185517 79 0.0 0.0 0.00 0.00 0.00 29 1009.7
20260508184517 78 0.0 0.0 0.00 0.00 0.00 29 1009.7
20260508183517 76 0.0 0.0 0.00 0.00 0.00 26 1009.8
20260508182517 78 0.0 0.0 0.00 0.00 0.00 22 1009.9
20260508181517 78 0.0 0.0 0.00 0.00 0.00 26 1010.0
20260508180517 77 0.0 0.0 0.00 0.00 0.00 30 1010.1
20260508175517 76 0.0 0.0 0.00 0.00 0.00 26 1010.2
20260508174517 76 0.0 0.0 0.00 0.00 0.00 25 1010.3
20260508173517 77 0.0 0.0 0.00 0.00 0.00 27 1010.4
20260508172517 77 0.0 0.0 0.00 0.00 0.00 28 1010.5
20260508171517 76 0.0 0.0 0.00 0.00 0.00 28 1010.6
20260508170537 75 0.0 0.0 0.00 0.00 0.00 26 1010.6
20260508165617 75 0.0 0.0 0.00 0.00 0.00 28 1010.6
20260508164537 77 0.0 0.0 0.00 0.00 0.00 28 1010.7
20260508163517 76 0.0 0.0 0.00 0.00 0.00 30 1010.8
20260508162537 74 0.0 0.0 0.00 0.00 0.00 37 1010.7
20260508161517 72 0.0 0.0 0.00 0.00 0.00 39 1010.7
20260508160517 70 0.0 0.0 0.00 0.00 0.00 38 1010.8
20260508155516 68 0.0 0.0 0.00 0.00 0.00 42 1010.8
20260508154537 67 0.0 0.0 0.00 0.00 0.00 49 1010.8
20260508153516 66 0.0 0.0 0.00 0.00 0.00 51 1010.8
20260508152536 64 0.0 0.0 0.00 0.00 0.00 51 1010.7
20260508151516 64 0.0 0.0 0.00 0.00 0.00 51 1010.7
20260508150516 64 0.0 0.0 0.00 0.00 0.00 51 1010.8
20260508145516 63 0.0 0.0 0.00 0.00 0.00 53 1010.8
20260508144517 61 0.0 0.0 0.00 0.00 0.00 57 1010.9
20260508143516 60 0.0 0.0 0.00 0.00 0.00 57 1011.1
20260508142516 59 0.0 0.0 0.00 0.00 0.00 59 1011.0
20260508141516 58 0.0 0.0 0.00 0.00 0.00 60 1010.9
20260508140516 56 0.0 0.0 0.00 0.00 0.00 63 1010.9
20260508135517 55 0.0 0.0 0.00 0.00 0.00 64 1010.9
20260508134536 55 0.0 0.0 0.00 0.00 0.00 64 1011.0
20260508133516 55 0.0 0.0 0.00 0.00 0.00 65 1011.3
20260508132516 55 0.0 0.0 0.00 0.00 0.00 63 1011.2
20260508131516 55 0.0 0.0 0.00 0.00 0.00 60 1011.1
20260508130537 55 0.0 0.0 0.00 0.00 0.00 58 1010.9
20260508125516 54 0.0 0.0 0.00 0.00 0.00 61 1010.8
20260508124516 53 0.0 0.0 0.00 0.00 0.00 64 1010.7
20260508123517 52 0.0 0.0 0.00 0.00 0.00 68 1010.7
20260508122616 52 0.0 0.0 0.00 0.00 0.00 66 1010.7
20260508121536 52 0.0 0.0 0.00 0.00 0.00 65 1010.8
20260508120516 52 0.0 0.0 0.00 0.00 0.00 64 1010.7
20260508115516 52 0.0 0.0 0.00 0.00 0.00 60 1010.9
20260508114516 51 0.0 0.0 0.00 0.00 0.00 60 1010.7
20260508113516 51 0.0 0.0 0.00 0.00 0.00 58 1010.5
20260508112517 51 0.0 0.0 0.00 0.00 0.00 58 1010.4
20260508111516 52 0.0 0.0 0.00 0.00 0.00 58 1010.6
20260508110537 52 0.0 0.0 0.00 0.00 0.00 58 1010.8
20260508105516 52 0.0 0.0 0.00 0.00 0.00 56 1010.7
20260508104516 52 0.0 0.0 0.00 0.00 0.00 57 1010.6
20260508103516 52 0.0 0.0 0.00 0.00 0.00 56 1010.9
20260508102516 52 0.0 0.0 0.00 0.00 0.00 57 1011.1
20260508101516 52 0.0 0.0 0.00 0.00 0.00 57 1010.9
20260508100516 52 0.0 0.0 0.00 0.00 0.00 58 1011.2
20260508095516 53 0.0 0.0 0.00 0.00 0.00 58 1011.2
20260508094516 53 0.0 0.0 0.00 0.00 0.00 59 1011.3
20260508093536 54 0.0 0.0 0.00 0.00 0.00 58 1011.4
20260508092516 54 0.0 0.0 0.00 0.00 0.00 55 1011.3
20260508091516 55 0.0 0.0 0.00 0.00 0.00 56 1011.4
20260508090516 55 0.0 0.0 0.00 0.00 0.00 52 1011.3
20260508085516 56 0.0 0.0 0.00 0.00 0.00 53 1011.4
20260508084516 56 0.0 0.0 0.00 0.00 0.00 49 1011.4
20260508083536 56 0.0 0.0 0.00 0.00 0.00 50 1011.3
20260508082516 56 0.0 0.0 0.00 0.00 0.00 47 1011.3
20260508081516 57 0.0 0.0 0.00 0.00 0.00 47 1011.5
20260508080536 57 0.0 0.0 0.00 0.00 0.00 46 1011.8
20260508075516 57 0.0 0.0 0.00 0.00 0.00 47 1011.9
20260508074516 57 0.0 0.0 0.00 0.00 0.00 44 1011.8
20260508073516 58 0.0 0.0 0.00 0.00 0.00 45 1011.8
20260508072516 57 0.0 0.0 0.00 0.00 0.00 44 1011.7
20260508071515 57 0.0 0.0 0.00 0.00 0.00 45 1011.4
20260508070516 57 0.0 0.0 0.00 0.00 0.00 46 1011.5
20260508065516 58 0.0 0.0 0.00 0.00 0.00 46 1011.6
20260508064515 58 0.0 0.0 0.00 0.00 0.00 43 1011.7
20260508063515 58 0.0 0.0 0.00 0.00 0.00 41 1011.8
20260508062515 58 0.0 0.0 0.00 0.00 0.00 41 1011.8
20260508061515 58 0.0 0.0 0.00 0.00 0.00 41 1011.9
20260508060536 58 0.0 0.0 0.00 0.00 0.00 41 1011.9
20260508055517 59 0.0 0.0 0.00 0.00 0.00 41 1011.7
20260508054536 59 0.0 0.0 0.00 0.00 0.00 40 1011.5
20260508053516 59 0.0 0.0 0.00 0.00 0.00 41 1011.5
20260508052516 58 0.0 0.0 0.00 0.00 0.00 41 1011.5
20260508051515 58 0.0 0.0 0.00 0.00 0.00 42 1011.5
20260508050515 58 0.0 0.0 0.00 0.00 0.00 42 1011.5
20260508045516 58 0.0 0.0 0.00 0.00 0.00 43 1011.7
20260508044516 58 0.0 0.0 0.00 0.00 0.00 42 1011.8
20260508043516 58 0.0 0.0 0.00 0.00 0.00 42 1011.7
20260508042536 59 0.0 0.0 0.00 0.00 0.00 41 1011.7
20260508041516 59 0.0 0.0 0.00 0.00 0.00 40 1011.8
20260508040536 60 0.0 0.0 0.00 0.00 0.00 40 1011.7
20260508035516 60 0.0 0.0 0.00 0.00 0.00 40 1011.5
20260508034516 60 0.0 0.0 0.00 0.00 0.00 40 1011.7
20260508033516 60 0.0 0.0 0.00 0.00 0.00 40 1011.7
20260508032516 61 0.0 0.0 0.00 0.00 0.00 39 1011.7
20260508031516 61 0.0 0.0 0.00 0.00 0.00 38 1011.7
20260508030516 61 0.0 0.0 0.00 0.00 0.00 37 1011.6
20260508025516 62 0.0 0.0 0.00 0.00 0.00 37 1011.5
20260508024516 62 0.0 0.0 0.00 0.00 0.00 36 1011.4
20260508023536 63 0.0 0.0 0.00 0.00 0.00 35 1011.3
20260508022516 64 0.0 0.0 0.00 0.00 0.00 34 1011.2